Hourly Weather Roundup
Issued by NWS Central Illinois

Home | Current Version | Previous Version | Text Only | Print | Product List | Glossary On
Versions: 1 2 3 4 5 6 7 8 9 10 11 12 13 14 15 16 17 18 19 20 21 22 23 24 25 26 27 28 29 30 31 32 33 34 35 36 37 38 39 40 41 42 43 44 45 46 47 48 49 50
000
NZUS43 KILX 221710
HWRILX

Area Weather Roundup
National Weather Service Lincoln IL
1200 PM CDT SUN APR 22 2018

NOTE:  "FAIR" indicates few or no clouds below 12,000 feet, with
       no sigificant weather and/or obstructions to visibility.


CITY           SKY/WX    TMP DP  RH WIND       PRES   REMARKS
Bloomington    CLOUDY    60  27  28 NE17G25   30.24F
Champaign      CLOUDY    58  30  34 NE17      30.23S
Danville       CLOUDY    57  31  36 E10       30.23R
Decatur        CLOUDY    58  30  34 E20       30.21F
Effingham      CLOUDY    62  37  39 NE6       30.19S
Flora          PTSUNNY   62  37  38 NE12      30.16F
Galesburg      FAIR      67  32  27 NE16      30.24F
Jacksonville   PTSUNNY   62  39  41 NE13      30.17S
Lacon          FAIR      60  26  26 E14G21    30.25F
Lawrenceville  FAIR      64  34  32 E13       30.18F
Litchfield     CLOUDY    54  36  50 NE9       30.16S
$$


CITY           SKY/WX    TMP DP  RH WIND       PRES   REMARKS
Lincoln        CLOUDY    61  33  34 NE15      30.21F
Macomb         MOSUNNY   62  34  34 E15       30.24S
Mattoon        FAIR      62  36  37 NE12      30.19S
Mt Carmel AP   PTSUNNY   60  35  38 NE12      30.17F
Olney-Noble AP PTSUNNY   61  32  33 E10       30.16F
Paris AP       FAIR      61  35  37 E15       30.23F
Peoria         FAIR      61  31  32 NE17G29   30.24F
Pontiac        FAIR      63  20  19 E20       30.27F
Rantoul        CLOUDY    60  30  32 E15G22    30.24S
Robinson       FAIR      62  37  39 E7        30.19F
Springfield    CLOUDY    60  35  39 NE18      30.20S
Taylorville    CLOUDY    58  33  38 E16       30.20R
$$

...REGIONAL REPORTS...


CITY           SKY/WX    TMP DP  RH WIND       PRES   REMARKS
Chicago O`Hare PTSUNNY   58  24  27 E15       30.33F
Kankakee       FAIR      62  16  16 E13       30.29F
La Salle       FAIR      64  24  22 E10G17    30.29F
Moline         FAIR      63  22  20 E20G26    30.26F
Mount Sterling SUNNY     64  39  40 E15       30.17F
Mount Vernon   FAIR      58  38  47 NE9       30.13F
Pittsfield     CLOUDY    66  41  40 E10G22    30.17S
Quincy         SUNNY     63  40  42 NE15      30.17F
Rockford       PTSUNNY   59  25  27 E14G22    30.34F
$$


CITY           SKY/WX    TMP DP  RH WIND       PRES   REMARKS
Burlington     CLOUDY    62  30  29 NE14      30.21F
Cedar Rapids   FAIR      61  23  23 E18G24    30.26F
Des Moines     PTSUNNY   61  29  29 NE10      30.23F
Kirksville     CLOUDY    60  39  45 NE13      30.18F
Ottumwa        CLOUDY    61  31  32 E15       30.21F
St Louis       CLOUDY    59  46  62 E14       30.12F
$$


CITY           SKY/WX    TMP DP  RH WIND       PRES   REMARKS
Terre Haute    FAIR      62  35  36 E13       30.21F
Evansville     FAIR      69  42  37 E10G18    30.14F
Indianapolis   CLOUDY    60  29  30 E14       30.26S
Lafayette      FAIR      57  29  34 E15       30.27F
Madison        PTSUNNY   55  25  31 E7G16     30.35F
Milwaukee      PTSUNNY   49  28  44 E8        30.40F
$$






USA.gov is the U.S. government's official web portal to all federal, state and local government web resources and services.